STARLINK-36338

Last updated on Tue Mar 10 2026 00:02:05 GMT+0000 (Coordinated Universal Time)

1 67704U 26025M 26068.25041564 .00457605 00000+0 28861-2 0 9991 2 67704 97.2842 179.8485 0001102 129.9398 230.1964 15.75359701 5873
UTC large
Height (km)
Speed (km/s)
/
Latitude / Longitude
Inclination (degrees)
Orbital Period (minutes)
Azimuth
Elevation
Range (km)
Doppler Factor

Next 0 passes for location: London (51.5072 / 0.1276)

Sorry there are no passes over London.